| time (UTC) | temp C | wind direction | speed KPH | gust KPH | rain 1hr cm | rain 24hr cm | rain mn cm | humidity % | barometer mb |
| 20260507211535 | 12 | 294 | 0.0 | 0.0 | 0.00 | 0.00 | 0.00 | 68 | 1011.9 |
| 20260507210025 | 12 | 257 | 0.0 | 0.0 | 0.00 | 0.00 | 0.00 | 67 | 1012.0 |
| 20260507204524 | 13 | 257 | 0.0 | 0.0 | 0.00 | 0.00 | 0.00 | 66 | 1011.8 |
| 20260507203032 | 13 | 252 | 0.0 | 0.0 | 0.00 | 0.00 | 0.00 | 64 | 1011.5 |
| 20260507201523 | 13 | 252 | 0.0 | 0.0 | 0.00 | 0.00 | 0.00 | 64 | 1011.3 |
| 20260507200024 | 13 | 179 | 0.0 | 0.0 | 0.00 | 0.00 | 0.00 | 64 | 1011.1 |
| 20260507194528 | 14 | 178 | 0.0 | 1.6 | 0.00 | 0.00 | 0.00 | 61 | 1010.8 |
| 20260507193022 | 14 | 218 | 0.0 | 1.6 | 0.00 | 0.00 | 0.00 | 60 | 1010.5 |
| 20260507191523 | 15 | 218 | 0.0 | 1.6 | 0.00 | 0.00 | 0.00 | 58 | 1010.1 |
| 20260507190024 | 15 | 211 | 0.0 | 6.4 | 0.00 | 0.00 | 0.00 | 56 | 1009.8 |
| 20260507184520 | 15 | 261 | 0.0 | 8.0 | 0.00 | 0.00 | 0.00 | 55 | 1009.6 |
| 20260507183035 | 16 | 180 | 1.6 | 9.7 | 0.00 | 0.00 | 0.00 | 54 | 1009.2 |
| 20260507181520 | 16 | 252 | 0.0 | 11.3 | 0.00 | 0.00 | 0.00 | 54 | 1009.1 |
| 20260507180030 | 16 | 169 | 1.6 | 14.5 | 0.00 | 0.00 | 0.00 | 52 | 1008.9 |
| 20260507174520 | 17 | 197 | 1.6 | 9.7 | 0.00 | 0.00 | 0.00 | 51 | 1008.8 |
| 20260507173018 | 17 | 215 | 1.6 | 11.3 | 0.00 | 0.00 | 0.00 | 50 | 1008.7 |
| 20260507171518 | 17 | 168 | 3.2 | 14.5 | 0.00 | 0.00 | 0.00 | 49 | 1008.6 |
| 20260507170019 | 18 | 195 | 3.2 | 16.1 | 0.00 | 0.00 | 0.00 | 48 | 1008.5 |
| 20260507164517 | 18 | 183 | 3.2 | 14.5 | 0.00 | 0.00 | 0.00 | 46 | 1008.4 |
| 20260507163016 | 19 | 188 | 1.6 | 11.3 | 0.00 | 0.00 | 0.00 | 43 | 1008.5 |
| 20260507161516 | 20 | 175 | 3.2 | 12.9 | 0.00 | 0.00 | 0.00 | 42 | 1008.4 |
| 20260507160034 | 20 | 171 | 1.6 | 12.9 | 0.00 | 0.05 | 0.00 | 42 | 1008.3 |
| 20260507154516 | 20 | 257 | 0.0 | 9.7 | 0.00 | 0.05 | 0.00 | 41 | 1008.4 |
| 20260507153014 | 21 | 186 | 0.0 | 8.0 | 0.00 | 0.05 | 0.00 | 38 | 1008.4 |
| 20260507151514 | 21 | 223 | 0.0 | 8.0 | 0.00 | 0.05 | 0.00 | 40 | 1008.5 |
| 20260507150015 | 21 | 215 | 1.6 | 9.7 | 0.00 | 0.20 | 0.00 | 39 | 1008.6 |
| 20260507144519 | 20 | 155 | 0.0 | 9.7 | 0.00 | 0.20 | 0.00 | 39 | 1008.7 |
| 20260507143013 | 20 | 175 | 0.0 | 6.4 | 0.00 | 0.20 | 0.00 | 39 | 1008.8 |
| 20260507141516 | 20 | 226 | 0.0 | 6.4 | 0.00 | 0.20 | 0.00 | 40 | 1009.0 |
| 20260507140009 | 21 | 174 | 0.0 | 14.5 | 0.00 | 0.20 | 0.00 | 42 | 1009.2 |
| 20260507134506 | 21 | 339 | 1.6 | 11.3 | 0.00 | 0.20 | 0.00 | 38 | 1009.3 |
| 20260507133005 | 21 | 34 | 0.0 | 9.7 | 0.00 | 0.20 | 0.00 | 38 | 1009.6 |
| 20260507131504 | 20 | 175 | 0.0 | 9.7 | 0.00 | 0.20 | 0.00 | 41 | 1009.7 |
| 20260507130001 | 20 | 189 | 1.6 | 8.0 | 0.00 | 0.20 | 0.00 | 44 | 1009.8 |
| 20260507124635 | 20 | 175 | 1.6 | 8.0 | 0.00 | 0.20 | 0.00 | 43 | 1009.8 |
| 20260507123057 | 20 | 161 | 3.2 | 12.9 | 0.00 | 0.20 | 0.00 | 44 | 1010.1 |
| 20260507121556 | 19 | 115 | 0.0 | 9.7 | 0.00 | 0.20 | 0.00 | 42 | 1010.1 |
| 20260507120055 | 20 | 11 | 0.0 | 4.8 | 0.00 | 0.20 | 0.00 | 42 | 1010.3 |
| 20260507114610 | 19 | 171 | 0.0 | 4.8 | 0.00 | 0.20 | 0.00 | 46 | 1010.5 |
| 20260507113054 | 18 | 207 | 0.0 | 4.8 | 0.00 | 0.20 | 0.00 | 43 | 1010.6 |
| 20260507111548 | 18 | 249 | 1.6 | 11.3 | 0.00 | 0.20 | 0.00 | 49 | 1010.7 |
| 20260507110048 | 18 | 189 | 0.0 | 14.5 | 0.00 | 0.23 | 0.00 | 49 | 1010.9 |
| 20260507104551 | 18 | 167 | 1.6 | 9.7 | 0.00 | 0.23 | 0.00 | 51 | 1011.2 |
| 20260507103040 | 17 | 180 | 0.0 | 6.4 | 0.00 | 0.23 | 0.00 | 54 | 1011.4 |
| 20260507101541 | 17 | 182 | 3.2 | 9.7 | 0.00 | 0.23 | 0.00 | 57 | 1011.5 |
| 20260507100038 | 17 | 177 | 1.6 | 6.4 | 0.00 | 0.43 | 0.00 | 58 | 1011.8 |
| 20260507094534 | 16 | 87 | 0.0 | 8.0 | 0.00 | 0.43 | 0.00 | 60 | 1012.0 |
| 20260507093036 | 15 | 161 | 0.0 | 3.2 | 0.00 | 0.43 | 0.00 | 65 | 1012.0 |
| 20260507091538 | 15 | 170 | 0.0 | 9.7 | 0.00 | 0.43 | 0.00 | 64 | 1012.1 |
| 20260507090025 | 15 | 207 | 3.2 | 9.7 | 0.00 | 0.43 | 0.00 | 69 | 1012.1 |
| 20260507084526 | 14 | 150 | 1.6 | 8.0 | 0.00 | 0.43 | 0.00 | 70 | 1012.2 |
| 20260507083019 | 13 | 169 | 0.0 | 9.7 | 0.00 | 0.43 | 0.00 | 75 | 1012.3 |
| 20260507081517 | 13 | 173 | 1.6 | 8.0 | 0.00 | 0.43 | 0.00 | 75 | 1012.4 |
| 20260507080011 | 12 | 138 | 1.6 | 8.0 | 0.00 | 0.43 | 0.00 | 80 | 1012.5 |
| 20260507074507 | 12 | 146 | 0.0 | 4.8 | 0.00 | 0.43 | 0.00 | 84 | 1012.4 |
| 20260507073003 | 11 | 190 | 0.0 | 4.8 | 0.00 | 0.43 | 0.00 | 87 | 1012.7 |
| 20260507071559 | 10 | 171 | 0.0 | 0.0 | 0.00 | 0.43 | 0.00 | 90 | 1012.8 |
| 20260507070114 | 10 | 171 | 0.0 | 3.2 | 0.00 | 0.43 | 0.00 | 90 | 1012.9 |
| 20260507064605 | 10 | 192 | 0.0 | 0.0 | 0.00 | 0.43 | 0.00 | 91 | 1012.9 |
| 20260507063057 | 9 | 192 | 0.0 | 0.0 | 0.00 | 0.43 | 0.00 | 93 | 1012.7 |
| 20260507061550 | 9 | 192 | 0.0 | 0.0 | 0.00 | 0.43 | 0.00 | 93 | 1012.8 |
| 20260507060047 | 8 | 192 | 0.0 | 0.0 | 0.00 | 0.43 | 0.00 | 94 | 1012.6 |
| 20260507054544 | 8 | 345 | 0.0 | 0.0 | 0.00 | 0.43 | 0.00 | 94 | 1012.4 |
| 20260507053040 | 8 | 339 | 0.0 | 0.0 | 0.00 | 0.43 | 0.00 | 93 | 1012.4 |
| 20260507051536 | 8 | 341 | 0.0 | 0.0 | 0.00 | 0.43 | 0.00 | 93 | 1012.4 |
| 20260507050037 | 8 | 342 | 0.0 | 0.0 | 0.00 | 0.43 | 0.00 | 93 | 1012.3 |
| 20260507044531 | 8 | 342 | 0.0 | 0.0 | 0.00 | 0.43 | 0.00 | 93 | 1012.2 |
| 20260507043027 | 8 | 342 | 0.0 | 0.0 | 0.00 | 0.43 | 0.00 | 93 | 1012.0 |
| 20260507041526 | 8 | 342 | 0.0 | 0.0 | 0.00 | 0.43 | 0.00 | 93 | 1012.0 |
| 20260507040026 | 8 | 138 | 0.0 | 0.0 | 0.00 | 0.43 | 0.00 | 93 | 1012.0 |
| 20260507034533 | 8 | 138 | 0.0 | 0.0 | 0.00 | 0.43 | 0.00 | 93 | 1012.0 |
| 20260507033024 | 8 | 138 | 0.0 | 0.0 | 0.00 | 0.43 | 0.00 | 92 | 1012.0 |
| 20260507031524 | 8 | 138 | 0.0 | 0.0 | 0.00 | 0.43 | 0.00 | 92 | 1012.0 |
| 20260507030023 | 8 | 138 | 0.0 | 0.0 | 0.00 | 0.43 | 0.00 | 92 | 1012.0 |
| 20260507024527 | 8 | 137 | 0.0 | 0.0 | 0.00 | 0.43 | 0.00 | 92 | 1012.0 |
| 20260507023025 | 8 | 137 | 0.0 | 0.0 | 0.00 | 0.43 | 0.00 | 92 | 1011.9 |
| 20260507021521 | 8 | 137 | 0.0 | 0.0 | 0.00 | 0.43 | 0.00 | 92 | 1011.9 |
| 20260507020030 | 8 | 137 | 0.0 | 0.0 | 0.00 | 0.43 | 0.00 | 92 | 1011.7 |
| 20260507014518 | 8 | 137 | 0.0 | 0.0 | 0.00 | 0.43 | 0.00 | 92 | 1011.5 |
| 20260507013033 | 8 | 137 | 0.0 | 0.0 | 0.00 | 0.43 | 0.00 | 92 | 1011.2 |
| 20260507011516 | 8 | 137 | 0.0 | 0.0 | 0.00 | 0.43 | 0.00 | 93 | 1011.2 |
| 20260507010015 | 8 | 137 | 0.0 | 0.0 | 0.00 | 0.43 | 0.00 | 93 | 1011.2 |
| 20260507004514 | 8 | 137 | 0.0 | 0.0 | 0.00 | 0.43 | 0.00 | 93 | 1011.2 |
| 20260507003013 | 8 | 137 | 0.0 | 0.0 | 0.00 | 0.43 | 0.00 | 93 | 1011.2 |
| 20260507001513 | 8 | 137 | 0.0 | 0.0 | 0.00 | 0.43 | 0.00 | 92 | 1011.1 |
| 20260507000016 | 8 | 137 | 0.0 | 0.0 | 0.00 | 0.43 | 0.00 | 92 | 1010.7 |
| 20260506234518 | 8 | 137 | 0.0 | 0.0 | 0.00 | 0.43 | 0.00 | 92 | 1010.7 |
| 20260506233011 | 8 | 137 | 0.0 | 0.0 | 0.00 | 0.43 | 0.00 | 92 | 1010.9 |
| 20260506231508 | 9 | 137 | 0.0 | 0.0 | 0.00 | 0.43 | 0.00 | 93 | 1010.9 |
| 20260506230007 | 8 | 137 | 0.0 | 0.0 | 0.00 | 0.43 | 0.00 | 92 | 1010.9 |
| 20260506224509 | 9 | 137 | 0.0 | 0.0 | 0.00 | 0.43 | 0.00 | 92 | 1011.0 |
| 20260506223004 | 9 | 137 | 0.0 | 0.0 | 0.00 | 0.43 | 0.00 | 92 | 1011.0 |
| 20260506221504 | 9 | 137 | 0.0 | 0.0 | 0.00 | 0.43 | 0.00 | 93 | 1011.0 |
| 20260506220005 | 10 | 137 | 0.0 | 0.0 | 0.00 | 0.43 | 0.43 | 92 | 1010.9 |
| 20260506214602 | 9 | 137 | 0.0 | 0.0 | 0.00 | 0.43 | 0.43 | 92 | 1010.8 |
| 20260506213058 | 10 | 137 | 0.0 | 0.0 | 0.00 | 0.43 | 0.43 | 92 | 1010.7 |